Home > Weather > Strathcona County > Past weeks

Flag for Canada Weather for the Past 2 Weeks in Strathcona County, Alberta, Canada

Now
57 °F

Refreshingly cool.


Feels Like: 56 °F
Forecast: 54 / 80 °F
Wind: 6 mph from West

Location: Edmonton Municipal

Current Time: May 4, 2016 at 6:24:02 AM

Latest Report: May 4, 2016 at 5:00 AM


Visibility: N/A

Pressure: 29.78 "Hg (27.31 "Hg at 728m altitude)

Humidity: 39%

Dew Point: 32 °F

Location of Strathcona CountyLocation

Historic Weather in Strathcona County — Graph

°F

Strathcona County Temperature Yesterday

Maximum temperature yesterday: 85 °F (at 4:00 PM)
Minimum temperature yesterday: 56 °F (at 7:00 AM)
Average temperature yesterday: 71 °F

High & Low Weather Summary for the Past Weeks

 TemperatureHumidityPressure
High85 °F (May 3, 4:00 PM)100% (Apr 25, 10:00 AM)30.25 "Hg (Apr 25, 10:00 AM)
Low32 °F (Apr 21, 6:00 AM)12% (May 3, 3:00 PM)29.78 "Hg (May 4, 12:00 AM)
Average52 °F52%30.05 "Hg
* Reported Apr 19 5:00 AM — May 4 5:00 AM, Strathcona County, Weather by CustomWeather, © 2016

Note: Actual official high and low records may vary slightly from our data, if they occured in-between our weather recording intervals... More about our weather records

Advertising

Strathcona County Weather History for the Previous 24 Hours

Scroll right to see more
 ConditionsComfort  
Time TempWeatherWind HumidityBarometerVisibility
5:00 AM
Wed, May 4
57 °FRefreshingly cool.6 mph39%29.78 "HgN/A
4:00 AM58 °FRefreshingly cool.5 mph37%29.78 "HgN/A
3:00 AM60 °FRefreshingly cool.5 mph32%29.79 "HgN/A
2:00 AM63 °FMild.5 mph31%29.79 "HgN/A
1:00 AM67 °FMild.7 mph27%29.79 "HgN/A
12:00 AM64 °FMild.No wind34%29.78 "HgN/A
11:00 PM
Tue, May 3
68 °FMild.1 mph26%29.79 "HgN/A
10:00 PM71 °FMild.No wind21%29.79 "HgN/A
9:00 PM77 °FMild.3 mph17%29.80 "HgN/A
8:00 PM81 °FPleasantly warm.6 mph14%29.80 "HgN/A
7:00 PM83 °FPleasantly warm.8 mph13%29.81 "HgN/A
6:00 PM85 °FPleasantly warm.6 mph14%29.82 "HgN/A
5:00 PM84 °FPleasantly warm.9 mph12%29.85 "HgN/A
4:00 PM85 °FPleasantly warm.10 mph12%29.86 "HgN/A
3:00 PM85 °FPleasantly warm.7 mph12%29.88 "HgN/A
2:00 PM83 °FPleasantly warm.7 mph13%29.89 "HgN/A
1:00 PM81 °FPleasantly warm.8 mph15%29.90 "HgN/A
12:00 PM78 °FPleasantly warm.5 mph18%29.92 "HgN/A
11:00 AM76 °FMild.6 mph22%29.93 "HgN/A
10:00 AM71 °FMild.6 mph27%29.93 "HgN/A
9:00 AM63 °FMild.6 mph36%29.94 "HgN/A
8:00 AM59 °FRefreshingly cool.6 mph44%29.94 "HgN/A
7:00 AM56 °FRefreshingly cool.9 mph49%29.94 "HgN/A
6:00 AM58 °FRefreshingly cool.12 mph45%29.93 "HgN/A
Weather by CustomWeather, © 2016

See weather overviewHow to use our weather pages